Weather in Verkhniye Shipki

Russia / Republic of Tatarstan     55°19′55″N   51°51′48″E
temp.,
°C
wind,
m/s
gust,
m/s
humid.,
%
clouds,
%
prec.,
mm/h
press.,
hPa
HPBL,
m
19 april, mon
mon1900:00+4ene7125696 0.0 1025664
03:00+1ene8135754 0.0 1027582
06:000ene814619 0.0 1027659
09:00+3e9114987 0.0 1028985
12:00+6e9104361 0.0 10281439
15:00+7e8103641 0.0 10281649
18:00+6e7113550 0.0 1029842
21:00+3e714394 0.0 1030592
20 april, tue
tue2000:00+1e612480 0.0 1031368
03:000e511590 0.0 1032274
06:000ese510490 0.0 1033455
09:00+4ese68310 0.0 10331017
12:00+7ese68270 0.0 10321300
15:00+9ese67260 0.0 10311433
18:00+7ese48360 0.0 1030233
21:00+4ese51245100 0.0 1030283
21 april, wed
wed2100:00+3ese4115060 0.0 1029259
03:00+1ese41157100 0.0 1029216
06:00+3se71548100 0.0 1028586
09:00+6sse91434100 0.0 1027870
12:00+8sse81333100 0.0 10261011
15:00+9s71337100 0.0 10251233
18:00+6s61358100 0.2 1026800
21:00+4s71581100 0.9 1026870
22 april, thu
thu2200:00+3s71596100 1.3 1026722
03:00+3s61396100 2.9 1026673
06:00+3s51297100 1.9 1026710
09:00+3s61297100 3.1 1027655
12:00+4s51097100 0.9 1027624
15:00+4sse51097100 1.4 1028511
18:00+4s51092100 0.0 1028463
21:00+4s51094100 0.1 1028408
23 april, fri
fri2300:00+4s3794100 0.1 1028326
03:00+3sse3696100 0.1 1028235
06:00+4se2596100 0.0 1028263
09:00+5se3594100 0.0 1027326
12:00+5se2394100 0.0 1027517
15:00+6ese3487100 0.1 1026522
18:00+6e358599 0.0 1025418
21:00+5ene3693100 0.0 1023217